Regional Weather Roundup
Issued by NWS

Home | Current Version | Previous Version | Text Only | Print | Product List | Glossary On
Versions: 1 2 3 4 5 6 7 8 9 10 11 12 13 14 15 16 17 18 19 20 21 22 23 24 25 26 27 28 29 30 31 32 33 34 35 36 37 38 39 40 41 42 43 44 45 46 47 48 49 50
000
ASCA42 TJSJ 251210
RWRPR
PUERTO RICO/U.S. VIRGIN ISLANDS HOURLY WEATHER ROUNDUP
NATIONAL WEATHER SERVICE SAN JUAN PR
800 AM AST MON MAY 25 2015

PRZ001-004-251300-
PUERTO RICO

CITY           SKY/WX    TMP DP  RH WIND       PRES   REMARKS
SAN JUAN LMM   MOSUNNY   81  73  78 E9        30.07S
AGUADILLA      SUNNY     79  70  73 E14       30.08S
CEIBA          CLOUDY    84  72  65 E10       30.09R
$$

PRZ006-007-251300-
U.S. VIRGIN ISLANDS

CITY           SKY/WX    TMP DP  RH WIND       PRES   REMARKS
CHARLOTTE AMA  CLOUDY    84  72  65 E13       30.06R
CHRISTIANSTED  MOSUNNY   82  72  69 E17       30.07R
$$

HOURLY WEATHER ROUNDUP FOR THE NEWS MEDIA

CITY           SKY/WX    TMP DP  RH WIND       PRES   REMARKS
ORLANDO        SUNNY     76  71  85 E6        30.20R
NEW YORK       PTSUNNY   63  54  72 S8        30.29S
NEWARK         CLOUDY    65  55  70 S6        30.27S
CHICAGO        CLOUDY    70  62  76 S21G28    29.84R
HARTFORD       MOSUNNY   63  53  70 SW7       30.27R
BOSTON         PTSUNNY   65  51  60 S6        30.24S
DALLAS         DRIZZLE   70  68  93 S12       29.91R FOG
PHILADELPHIA   MOSUNNY   69  59  70 S8        30.28R
LOS ANGELES    PTCLDY    58  54  86 S3        29.94F
WASHINGTON DC  MOSUNNY   65  57  75 S12       30.28R


USA.gov is the U.S. government's official web portal to all federal, state and local government web resources and services.